| time (UTC) | temp F | wind direction | speed MPH | gust MPH | rain 1hr in | rain 24hr in | rain mn in | humidity % | barometer mb |
| 20260503004509 | 61 | 13 | 0.0 | 1.0 | 0.00 | 0.00 | 0.00 | 31 | 1015.9 |
| 20260503003021 | 61 | 13 | 0.0 | 2.0 | 0.00 | 0.00 | 0.00 | 31 | 1016.1 |
| 20260503001510 | 62 | 13 | 0.0 | 1.0 | 0.00 | 0.00 | 0.00 | 31 | 1016.1 |
| 20260503000017 | 62 | 13 | 0.0 | 3.0 | 0.00 | 0.00 | 0.00 | 31 | 1016.3 |
| 20260502234523 | 63 | 13 | 0.0 | 3.0 | 0.00 | 0.00 | 0.00 | 30 | 1016.4 |
| 20260502233021 | 63 | 13 | 0.0 | 4.0 | 0.00 | 0.00 | 0.00 | 30 | 1016.5 |
| 20260502231511 | 64 | 13 | 0.0 | 4.0 | 0.00 | 0.00 | 0.00 | 28 | 1016.7 |
| 20260502230004 | 65 | 180 | 1.0 | 6.0 | 0.00 | 0.00 | 0.00 | 29 | 1016.9 |
| 20260502223017 | 65 | 317 | 1.0 | 9.0 | 0.00 | 0.00 | 0.00 | 27 | 1017.1 |
| 20260502221503 | 66 | 176 | 2.0 | 5.0 | 0.00 | 0.00 | 0.00 | 28 | 1017.3 |
| 20260502220008 | 66 | 170 | 1.0 | 4.0 | 0.00 | 0.00 | 0.00 | 28 | 1017.5 |
| 20260502214504 | 66 | 262 | 1.0 | 6.0 | 0.00 | 0.00 | 0.00 | 27 | 1017.7 |
| 20260502210009 | 65 | 13 | 1.0 | 6.0 | 0.00 | 0.00 | 0.00 | 30 | 1018.1 |
| 20260502204508 | 65 | 13 | 0.0 | 6.0 | 0.00 | 0.00 | 0.00 | 31 | 1018.5 |
| 20260502203005 | 64 | 13 | 1.0 | 6.0 | 0.00 | 0.00 | 0.00 | 30 | 1018.8 |
| 20260502194517 | 63 | 13 | 2.0 | 9.0 | 0.00 | 0.00 | 0.00 | 29 | 1019.5 |
| 20260502193006 | 63 | 13 | 1.0 | 6.0 | 0.00 | 0.00 | 0.00 | 34 | 1019.6 |
| 20260502191504 | 62 | 13 | 0.0 | 5.0 | 0.00 | 0.00 | 0.00 | 33 | 1019.9 |
| 20260502184510 | 60 | 13 | 2.0 | 10.0 | 0.00 | 0.00 | 0.00 | 31 | 1020.2 |
| 20260502183011 | 60 | 13 | 1.0 | 6.0 | 0.00 | 0.00 | 0.00 | 34 | 1020.4 |
| 20260502181508 | 60 | 13 | 1.0 | 6.0 | 0.00 | 0.00 | 0.00 | 35 | 1020.6 |
| 20260502161518 | 55 | 13 | 0.0 | 4.0 | 0.00 | 0.00 | 0.00 | 38 | 1021.6 |
| 20260502151515 | 51 | 13 | 0.0 | 4.0 | 0.00 | 0.00 | 0.00 | 47 | 1021.7 |
| 20260502121509 | 34 | 13 | 0.0 | 0.0 | 0.00 | 0.00 | 0.00 | 85 | 1021.6 |
| 20260502114504 | 33 | 13 | 0.0 | 0.0 | 0.00 | 0.00 | 0.00 | 82 | 1021.3 |
| 20260502113008 | 33 | 13 | 0.0 | 0.0 | 0.00 | 0.00 | 0.00 | 81 | 1021.1 |
| 20260502104516 | 34 | 13 | 0.0 | 0.0 | 0.00 | 0.00 | 0.00 | 79 | 1020.9 |
| 20260502103012 | 35 | 13 | 0.0 | 0.0 | 0.00 | 0.00 | 0.00 | 78 | 1020.9 |
| 20260502101513 | 35 | 13 | 0.0 | 0.0 | 0.00 | 0.00 | 0.00 | 78 | 1020.7 |
| 20260502091511 | 36 | 13 | 0.0 | 0.0 | 0.00 | 0.00 | 0.00 | 74 | 1020.6 |
| 20260502071512 | 40 | 13 | 0.0 | 0.0 | 0.00 | 0.00 | 0.00 | 68 | 1020.6 |
| 20260502070017 | 41 | 13 | 0.0 | 0.0 | 0.00 | 0.00 | 0.00 | 67 | 1020.5 |
| 20260502064519 | 42 | 13 | 0.0 | 0.0 | 0.00 | 0.00 | 0.00 | 66 | 1020.5 |
| 20260502063024 | 42 | 13 | 0.0 | 0.0 | 0.00 | 0.00 | 0.00 | 67 | 1020.5 |
| 20260502061521 | 43 | 13 | 0.0 | 0.0 | 0.00 | 0.00 | 0.00 | 66 | 1020.5 |
| 20260502060013 | 43 | 13 | 0.0 | 0.0 | 0.00 | 0.00 | 0.00 | 65 | 1020.4 |
| 20260502054515 | 44 | 13 | 0.0 | 0.0 | 0.00 | 0.00 | 0.00 | 63 | 1020.4 |
| 20260502053020 | 44 | 13 | 0.0 | 0.0 | 0.00 | 0.00 | 0.00 | 61 | 1020.3 |
| 20260502050010 | 45 | 13 | 0.0 | 0.0 | 0.00 | 0.00 | 0.00 | 60 | 1020.2 |
| 20260502044504 | 46 | 13 | 0.0 | 0.0 | 0.00 | 0.00 | 0.00 | 57 | 1020.1 |
| 20260502043009 | 47 | 13 | 0.0 | 0.0 | 0.00 | 0.00 | 0.00 | 56 | 1019.9 |
| 20260502041504 | 47 | 13 | 0.0 | 0.0 | 0.00 | 0.00 | 0.00 | 55 | 1019.9 |
| 20260502031508 | 49 | 13 | 0.0 | 0.0 | 0.00 | 0.00 | 0.00 | 52 | 1019.7 |
| 20260502030006 | 50 | 13 | 0.0 | 0.0 | 0.00 | 0.00 | 0.00 | 51 | 1019.7 |
| 20260502021511 | 51 | 13 | 0.0 | 0.0 | 0.00 | 0.00 | 0.00 | 49 | 1019.2 |
| 20260502020006 | 51 | 13 | 0.0 | 2.0 | 0.00 | 0.00 | 0.00 | 48 | 1018.9 |
| 20260502013013 | 52 | 13 | 0.0 | 4.0 | 0.00 | 0.00 | 0.00 | 46 | 1018.6 |
| 20260502011507 | 52 | 13 | 0.0 | 3.0 | 0.00 | 0.00 | 0.00 | 46 | 1018.4 |
| 20260502010020 | 53 | 13 | 0.0 | 2.0 | 0.00 | 0.00 | 0.00 | 45 | 1018.3 |